Weather History for Canby, MN

Change the Weather History Date:

Monday, October 8, 2012

  Actual Average (KMML) Record (KMML)
Temperature  
Mean Temperature 54 °F -  
Max Temperature 67 °F 61 °F 87 °F (2010)
Min Temperature 41 °F 39 °F 17 °F (2000)
Degree Days  
Heating Degree Days 12    
Growing Degree Days 4 (Base 50)    
Moisture  
Dew Point 30 °F    
Average Humidity 42    
Maximum Humidity 60    
Minimum Humidity 30    
Precipitation  
Precipitation 0.00 in - - ()
Sea Level Pressure  
Sea Level Pressure 29.71 in    
Wind  
Wind Speed 12 mph (WSW)    
Max Wind Speed 26 mph    
Max Gust Speed 36 mph    
Visibility 10 miles    
Events      
Averages and records for this station are not official NWS values.
T = Trace of Precipitation, MM = Missing Value Source: NWS Daily Summary

Daily Weather History Graph

Daily Weather History Graph

Search for Another Location

Airport:

Trip Planner

Search our weather history database for the weather conditions in past years. The results will help you decide how hot, cold, wet, or windy it might be!

Date:

Astronomy

Oct. 08, 2012 Rise Set
Actual Time 7:32 AM CDT 6:51 PM CDT
Civil Twilight 7:03 AM CDT 7:21 PM CDT
Nautical Twilight 6:29 AM CDT 7:54 PM CDT
Astronomical Twilight 5:55 AM CDT 8:28 PM CDT
Moon No Moon Rise 2:57 PM CDT (10/8)
Length of Visible Light 12h 18m
Length of Day
11h 19m
Last Quarter, 46% of the Moon is Illuminated
Oct 8
Last Quarter
Oct 15
New
Oct 21
First Quarter
Oct 29
Full
Nov 6
Last Quarter

Hourly Weather History & Observations

Time (CDT) Temp. Windchill Dew Point Humidity Pressure Visibility Wind Dir Wind Speed Gust Speed Precip Events Conditions
12:14 AM 43.7 °F 38.6 °F 18.3 °F 36% 29.82 in 10.0 mi SW 9.2 mph - N/A   Clear
12:34 AM 43.3 °F 38.1 °F 19.0 °F 38% 29.82 in 10.0 mi SW 9.2 mph - N/A   Clear
12:54 AM 43.0 °F 38.2 °F 19.8 °F 40% 29.81 in 10.0 mi SW 8.1 mph - N/A   Clear
1:14 AM 42.8 °F 38.6 °F 20.1 °F 40% 29.81 in 10.0 mi SW 6.9 mph - N/A   Clear
1:35 AM 41.9 °F 36.9 °F 20.5 °F 42% 29.81 in 10.0 mi SW 8.1 mph - N/A   Clear
1:54 AM 42.1 °F 37.1 °F 21.0 °F 43% 29.81 in 10.0 mi SW 8.1 mph - N/A   Clear
2:14 AM 43.2 °F 38.4 °F 21.7 °F 43% 29.81 in 10.0 mi SW 8.1 mph - N/A   Mostly Cloudy
2:35 AM 45.0 °F 39.7 °F 21.9 °F 40% 29.80 in 10.0 mi SSW 10.4 mph - N/A   Overcast
2:54 AM 45.5 °F 41.3 °F 22.1 °F 40% 29.79 in 10.0 mi SW 8.1 mph - N/A   Overcast
3:14 AM 46.8 °F - 22.6 °F 39% 29.78 in 10.0 mi SW 10.4 mph - N/A   Overcast
3:34 AM 47.1 °F - 22.6 °F 38% 29.77 in 10.0 mi SW 10.4 mph - N/A   Overcast
3:54 AM 47.3 °F - 22.6 °F 38% 29.76 in 10.0 mi SSW 6.9 mph - N/A   Overcast
4:14 AM 47.3 °F - 23.0 °F 38% 29.75 in 10.0 mi SW 8.1 mph - N/A   Overcast
4:34 AM 47.3 °F - 23.7 °F 40% 29.75 in 10.0 mi SW 10.4 mph - N/A   Overcast
4:55 AM 47.3 °F - 23.9 °F 40% 29.75 in 10.0 mi SW 12.7 mph - N/A   Overcast
5:14 AM 47.3 °F - 24.3 °F 40% 29.75 in 10.0 mi SW 11.5 mph - N/A   Overcast
5:35 AM 46.9 °F - 24.4 °F 41% 29.74 in 10.0 mi SW 10.4 mph - N/A   Overcast
5:54 AM 46.6 °F - 24.4 °F 42% 29.73 in 10.0 mi SW 9.2 mph - N/A   Mostly Cloudy
6:14 AM 46.8 °F - 24.8 °F 42% 29.73 in 10.0 mi SW 10.4 mph - N/A   Mostly Cloudy
6:34 AM 46.9 °F - 24.8 °F 42% 29.72 in 10.0 mi SSW 11.5 mph 17.3 mph N/A   Scattered Clouds
6:54 AM 47.3 °F - 25.3 °F 42% 29.71 in 10.0 mi SSW 11.5 mph - N/A   Mostly Cloudy
7:14 AM 46.8 °F - 25.3 °F 43% 29.71 in 10.0 mi SSW 12.7 mph 18.4 mph N/A   Overcast
7:34 AM 47.3 °F - 25.7 °F 43% 29.70 in 10.0 mi SSW 11.5 mph 19.6 mph N/A   Overcast
7:54 AM 47.5 °F - 25.7 °F 43% 29.70 in 10.0 mi SSW 11.5 mph 18.4 mph N/A   Overcast
8:14 AM 47.7 °F - 26.1 °F 43% 29.69 in 10.0 mi SSW 11.5 mph 19.6 mph N/A   Overcast
8:34 AM 48.4 °F - 26.4 °F 42% 29.68 in 10.0 mi SSW 12.7 mph 19.6 mph N/A   Mostly Cloudy
8:54 AM 49.3 °F - 26.6 °F 41% 29.68 in 10.0 mi SSW 16.1 mph 20.7 mph N/A   Mostly Cloudy
9:15 AM 50.0 °F - 27.1 °F 41% 29.67 in 10.0 mi SSW 10.4 mph 19.6 mph N/A   Overcast
9:34 AM 50.5 °F - 27.3 °F 41% 29.66 in 10.0 mi SSW 12.7 mph 18.4 mph N/A   Overcast
9:54 AM 51.6 °F - 27.5 °F 39% 29.66 in 10.0 mi SSW 12.7 mph 18.4 mph N/A   Overcast
10:14 AM 52.5 °F - 27.7 °F 38% 29.65 in 10.0 mi SSW 15.0 mph 23.0 mph N/A   Overcast
10:34 AM 53.4 °F - 28.4 °F 38% 29.64 in 10.0 mi SSW 17.3 mph 24.2 mph N/A   Overcast
10:54 AM 56.5 °F - 29.3 °F 35% 29.61 in 10.0 mi SSW 16.1 mph 20.7 mph N/A   Scattered Clouds
11:15 AM 59.7 °F - 30.2 °F 33% 29.61 in 10.0 mi SSW 15.0 mph 27.6 mph N/A   Mostly Cloudy
11:34 AM 61.3 °F - 29.3 °F 30% 29.61 in 10.0 mi SW 21.9 mph 27.6 mph N/A   Mostly Cloudy
11:55 AM 61.7 °F - 29.8 °F 30% 29.61 in 10.0 mi WSW 23.0 mph 31.1 mph N/A   Scattered Clouds
12:14 PM 61.3 °F - 30.2 °F 31% 29.59 in 10.0 mi WSW 26.5 mph 35.7 mph N/A   Clear
12:55 PM 62.8 °F - 31.8 °F 31% 29.61 in 10.0 mi WSW 24.2 mph 34.5 mph N/A   Clear
1:14 PM 64.6 °F - 32.4 °F 30% 29.61 in 10.0 mi WSW 26.5 mph 34.5 mph N/A   Clear
1:35 PM 65.7 °F - 33.1 °F 30% 29.60 in 10.0 mi WSW 26.5 mph 31.1 mph N/A   Clear
1:54 PM 66.4 °F - 36.0 °F 33% 29.60 in 10.0 mi WSW 21.9 mph 32.2 mph N/A   Clear
2:15 PM 66.9 °F - 38.1 °F 35% 29.61 in 10.0 mi West 23.0 mph 34.5 mph N/A   Clear
2:35 PM 66.9 °F - 39.0 °F 36% 29.61 in 10.0 mi West 21.9 mph 32.2 mph N/A   Clear
2:55 PM 66.4 °F - 39.4 °F 37% 29.62 in 10.0 mi WNW 23.0 mph 32.2 mph N/A   Clear
3:15 PM 66.0 °F - 39.2 °F 37% 29.62 in 10.0 mi West 21.9 mph 29.9 mph N/A   Clear
3:34 PM 65.1 °F - 37.9 °F 37% 29.63 in 10.0 mi West 17.3 mph 31.1 mph N/A   Mostly Cloudy
3:54 PM 63.5 °F - 38.3 °F 39% 29.65 in 10.0 mi WNW 18.4 mph 28.8 mph N/A   Overcast
4:15 PM 63.3 °F - 39.2 °F 41% 29.65 in 10.0 mi WNW 21.9 mph 27.6 mph N/A   Overcast
4:34 PM 63.0 °F - 39.4 °F 42% 29.66 in 10.0 mi WNW 16.1 mph - N/A   Overcast
4:54 PM 61.9 °F - 39.2 °F 43% 29.66 in 10.0 mi WNW 17.3 mph 21.9 mph N/A   Overcast
5:15 PM 61.2 °F - 38.8 °F 44% 29.67 in 10.0 mi WNW 19.6 mph 26.5 mph N/A   Overcast
5:34 PM 60.1 °F - 38.3 °F 44% 29.68 in 10.0 mi WNW 16.1 mph 24.2 mph N/A   Scattered Clouds
5:54 PM 59.4 °F - 38.7 °F 46% 29.69 in 10.0 mi NW 18.4 mph 27.6 mph N/A   Scattered Clouds
6:15 PM 58.5 °F - 38.5 °F 47% 29.70 in 10.0 mi NW 17.3 mph 23.0 mph N/A   Clear
6:35 PM 57.6 °F - 38.1 °F 48% 29.71 in 10.0 mi NW 11.5 mph 20.7 mph N/A   Clear
6:54 PM 56.3 °F - 37.4 °F 49% 29.72 in 10.0 mi NW 9.2 mph 19.6 mph N/A   Clear
7:35 PM 53.6 °F - 37.2 °F 54% 29.73 in 10.0 mi WNW 6.9 mph - N/A   Clear
8:14 PM 51.6 °F - 36.9 °F 57% 29.74 in 10.0 mi West 4.6 mph - N/A   Clear
8:35 PM 50.9 °F - 36.5 °F 58% 29.74 in 10.0 mi West 4.6 mph - N/A   Clear
8:55 PM 50.7 °F - 36.5 °F 58% 29.75 in 10.0 mi West 5.8 mph - N/A   Clear
9:15 PM 51.8 °F - 36.7 °F 56% 29.75 in 10.0 mi WSW 6.9 mph - N/A   Mostly Cloudy
9:34 PM 53.1 °F - 36.5 °F 53% 29.75 in 10.0 mi WSW 6.9 mph - N/A   Overcast
9:54 PM 52.0 °F - 36.5 °F 56% 29.76 in 10.0 mi WSW 6.9 mph - N/A   Overcast
10:14 PM 52.9 °F - 36.7 °F 54% 29.76 in 10.0 mi WSW 6.9 mph - N/A   Overcast
10:54 PM 50.4 °F - 36.3 °F 59% 29.76 in 10.0 mi West 6.9 mph - N/A   Mostly Cloudy
11:35 PM 50.0 °F - 36.5 °F 60% 29.76 in 10.0 mi WSW 5.8 mph - N/A   Scattered Clouds
11:54 PM 49.6 °F - 36.3 °F 60% 29.76 in 10.0 mi WSW 9.2 mph - N/A   Mostly Cloudy